Flag for Turkey Weather past 2 weeks in Istanbul, Turkey

Now
45 °F

Sprinkles. Partly cloudy.


Feels Like: 39 °F
Forecast: 44 / 50 °F
Wind: 10 mph from Northeast

Location: Istanbul Ataturk Airport

Current Time: Jan 27, 2015 at 12:41:43 AM

Latest Report: Jan 26, 2015 at 11:50 PM


Visibility: N/A

Pressure: 30.12 "Hg

Humidity: 87%

Dew point: 41 °F

Location of IstanbulLocation

Historic Weather in Istanbul — Graph

°F

Istanbul temperature yesterday

Maximum temperature yesterday: 55 °F (at 12:50 AM)
Minimum temperature yesterday: 45 °F (at 4:20 AM)
Average temperature yesterday: 47 °F

Past Weeks' High & Low Weather Summary

 TemperatureHumidityPressure
High61 °F (Jan 22, 2:50 PM)93% (Jan 12, 9:01 AM)30.36 "Hg (Jan 12, 9:01 AM)
Low34 °F (Jan 12, 2:50 PM)39% (Jan 23, 12:20 PM)29.77 "Hg (Jan 24, 12:50 AM)
Average49 °F69%30.11 "Hg
* Reported Jan 11 10:20 PM — Jan 26 10:50 PM, Istanbul, Weather by CustomWeather, © 2014

Note: Actual official high and low records may vary slightly from our data, if they occured in-between our weather recording intervals... More about our weather records

Advertising

Istanbul weather history for previous 24 hours

 ConditionsComfort  
Time TempWeatherWind HumidityBarometerVisibility
10:50 PM
Jan 26
45 °FSprinkles. Partly cloudy.12 mph87%30.12 "HgN/A
10:20 PM45 °FSprinkles. Partly cloudy.12 mph87%30.12 "HgN/A
9:58 PM46 °FSprinkles. Partly cloudy.10 mph82%30.12 "HgN/A
9:20 PM46 °FPartly cloudy.9 mph82%30.15 "HgN/A
8:50 PM46 °FPartly cloudy.12 mph82%30.12 "HgN/A
8:20 PM46 °FPartly cloudy.12 mph82%30.15 "HgN/A
7:50 PM46 °FPartly cloudy.12 mph82%30.15 "HgN/A
7:20 PM46 °FPartly cloudy.15 mph82%30.15 "HgN/A
6:50 PM46 °FPartly cloudy.14 mph82%30.15 "HgN/A
6:20 PM46 °FPartly cloudy.14 mph82%30.15 "HgN/A
5:50 PM46 °FPartly cloudy.12 mph82%30.12 "HgN/A
5:20 PM46 °FPartly cloudy.13 mph82%30.12 "HgN/A
4:50 PM46 °FBroken clouds.13 mph82%30.12 "HgN/A
4:20 PM46 °FBroken clouds.13 mph82%30.12 "HgN/A
3:50 PM46 °FBroken clouds.14 mph82%30.12 "HgN/A
3:20 PM46 °FBroken clouds.15 mph82%30.12 "HgN/A
2:50 PM46 °FBroken clouds.14 mph82%30.12 "HgN/A
2:20 PM48 °FBroken clouds.10 mph76%30.09 "HgN/A
1:50 PM48 °FBroken clouds.13 mph76%30.09 "HgN/A
1:20 PM48 °FBroken clouds.14 mph82%30.09 "HgN/A
12:50 PM48 °FBroken clouds.15 mph82%30.09 "HgN/A
12:20 PM48 °FBroken clouds.15 mph82%30.09 "HgN/A
11:50 AM48 °FBroken clouds.15 mph82%30.12 "HgN/A
11:20 AM48 °FBroken clouds.14 mph82%30.12 "HgN/A
10:50 AM48 °FBroken clouds.15 mph82%30.12 "HgN/A
10:20 AM48 °FBroken clouds.15 mph82%30.12 "HgN/A
9:50 AM48 °FBroken clouds.15 mph82%30.09 "HgN/A
9:20 AM48 °FBroken clouds.16 mph87%30.09 "HgN/A
8:50 AM46 °FBroken clouds.16 mph87%30.07 "HgN/A
8:20 AM46 °FBroken clouds.16 mph87%30.07 "Hg4 mi
7:50 AM46 °FBroken clouds.16 mph87%30.07 "Hg4 mi
7:20 AM45 °FPartly cloudy.16 mph93%30.04 "Hg5 mi
6:50 AM45 °FPartly cloudy.16 mph93%30.04 "HgN/A
6:20 AM46 °FPartly cloudy.10 mph82%30.04 "HgN/A
5:50 AM46 °FPartly cloudy.12 mph82%30.01 "HgN/A
5:20 AM45 °FPartly cloudy.9 mph81%30.01 "HgN/A
4:50 AM45 °FPartly cloudy.7 mph81%30.01 "HgN/A
4:20 AM45 °FPartly cloudy.8 mph81%29.98 "HgN/A
3:50 AM46 °FPartly cloudy.6 mph71%29.98 "HgN/A
3:20 AM46 °FPartly cloudy.1 mph71%29.98 "HgN/A
2:50 AM46 °FPartly cloudy.1 mph71%29.98 "HgN/A
2:20 AM52 °FPartly cloudy.1 mph58%29.98 "HgN/A
1:50 AM54 °FPartly cloudy.5 mph54%29.95 "HgN/A
1:20 AM55 °FPartly cloudy.6 mph51%29.95 "HgN/A
12:50 AM55 °FPartly cloudy.5 mph51%29.95 "HgN/A
12:20 AM54 °FPartly cloudy.2 mph54%29.95 "HgN/A
Weather by CustomWeather, © 2014

See weather overviewHow to use our weather pages